| time (UTC) | temp F | wind direction | speed MPH | gust MPH | rain 1hr in | rain 24hr in | rain mn in | humidity % | barometer mb |
| 20260903104656 | 90 | 145 | 3.0 | 13.0 | 0.00 | 0.00 | 0.00 | 42 | 1022.6 |
| 20260903103144 | 89 | 110 | 6.0 | 11.0 | 0.00 | 0.00 | 0.00 | 41 | 1022.9 |
| 20260903101650 | 88 | 73 | 5.0 | 12.0 | 0.00 | 0.00 | 0.00 | 41 | 1023.1 |
| 20260903100201 | 87 | 117 | 2.0 | 7.0 | 0.00 | 0.00 | 0.00 | 44 | 1023.3 |
| 20260903094652 | 83 | 282 | 0.0 | 3.0 | 0.00 | 0.00 | 0.00 | 54 | 1023.4 |
| 20260903093141 | 83 | 269 | 0.0 | 2.0 | 0.00 | 0.00 | 0.00 | 56 | 1023.5 |
| 20260903091651 | 81 | 36 | 0.0 | 0.0 | 0.00 | 0.00 | 0.00 | 58 | 1023.6 |
| 20260903090154 | 79 | 36 | 1.0 | 4.0 | 0.00 | 0.00 | 0.00 | 62 | 1023.7 |
| 20260903084653 | 78 | 52 | 0.0 | 3.0 | 0.00 | 0.00 | 0.00 | 64 | 1023.7 |
| 20260903083143 | 76 | 74 | 1.0 | 6.0 | 0.00 | 0.00 | 0.00 | 67 | 1023.7 |
| 20260903081658 | 74 | 28 | 2.0 | 5.0 | 0.00 | 0.00 | 0.00 | 70 | 1023.7 |
| 20260903080155 | 73 | 45 | 2.0 | 6.0 | 0.00 | 0.00 | 0.00 | 72 | 1023.8 |
| 20260903074653 | 72 | 45 | 1.0 | 5.0 | 0.00 | 0.00 | 0.00 | 75 | 1023.9 |
| 20260903073143 | 71 | 39 | 2.0 | 6.0 | 0.00 | 0.00 | 0.00 | 77 | 1024.0 |
| 20260903071652 | 70 | 36 | 1.0 | 5.0 | 0.00 | 0.00 | 0.00 | 80 | 1024.2 |
| 20260903070156 | 68 | 52 | 2.0 | 6.0 | 0.00 | 0.00 | 0.00 | 82 | 1024.2 |
| 20260903064653 | 67 | 37 | 3.0 | 7.0 | 0.00 | 0.00 | 0.00 | 84 | 1024.2 |
| 20260903063143 | 66 | 28 | 1.0 | 5.0 | 0.00 | 0.00 | 0.00 | 85 | 1024.3 |
| 20260903061653 | 65 | 60 | 2.0 | 4.0 | 0.00 | 0.00 | 0.00 | 87 | 1024.1 |
| 20260903060154 | 64 | 53 | 2.0 | 4.0 | 0.00 | 0.00 | 0.00 | 88 | 1024.0 |
| 20260903054653 | 64 | 53 | 1.0 | 3.0 | 0.00 | 0.00 | 0.00 | 87 | 1023.9 |
| 20260903053157 | 64 | 53 | 0.0 | 1.0 | 0.00 | 0.00 | 0.00 | 87 | 1023.7 |
| 20260903051646 | 64 | 53 | 1.0 | 3.0 | 0.00 | 0.00 | 0.00 | 85 | 1023.5 |
| 20260903050157 | 65 | 53 | 0.0 | 2.0 | 0.00 | 0.00 | 0.00 | 86 | 1023.4 |
| 20260903044652 | 65 | 53 | 0.0 | 4.0 | 0.00 | 0.00 | 0.00 | 85 | 1023.3 |
| 20260903041654 | 65 | 51 | 0.0 | 3.0 | 0.00 | 0.00 | 0.00 | 85 | 1023.2 |
| 20260903040157 | 65 | 51 | 0.0 | 1.0 | 0.00 | 0.00 | 0.00 | 85 | 1023.2 |
| 20260903034653 | 66 | 51 | 0.0 | 0.0 | 0.00 | 0.00 | 0.00 | 85 | 1023.3 |
| 20260903033147 | 66 | 51 | 0.0 | 3.0 | 0.00 | 0.00 | 0.00 | 85 | 1023.5 |
| 20260903031654 | 67 | 42 | 2.0 | 4.0 | 0.00 | 0.00 | 0.00 | 84 | 1023.4 |
| 20260903030154 | 67 | 32 | 1.0 | 3.0 | 0.00 | 0.00 | 0.00 | 84 | 1023.5 |
| 20260903024653 | 67 | 32 | 0.0 | 3.0 | 0.00 | 0.00 | 0.00 | 84 | 1023.5 |
| 20260903023141 | 67 | 44 | 0.0 | 3.0 | 0.00 | 0.00 | 0.00 | 82 | 1023.5 |
| 20260903021654 | 67 | 44 | 0.0 | 1.0 | 0.00 | 0.00 | 0.00 | 82 | 1023.5 |
| 20260903020153 | 68 | 38 | 0.0 | 4.0 | 0.00 | 0.00 | 0.00 | 81 | 1023.5 |
| 20260903014652 | 68 | 42 | 0.0 | 6.0 | 0.00 | 0.00 | 0.00 | 82 | 1023.4 |
| 20260903013140 | 68 | 53 | 1.0 | 4.0 | 0.00 | 0.00 | 0.00 | 82 | 1023.4 |
| 20260903011654 | 68 | 50 | 0.0 | 4.0 | 0.00 | 0.00 | 0.00 | 83 | 1023.5 |
| 20260903010154 | 69 | 50 | 0.0 | 1.0 | 0.00 | 0.00 | 0.00 | 82 | 1023.5 |
| 20260903004652 | 69 | 50 | 0.0 | 3.0 | 0.00 | 0.00 | 0.00 | 81 | 1023.6 |
| 20260903003145 | 70 | 50 | 0.0 | 3.0 | 0.00 | 0.00 | 0.00 | 81 | 1023.5 |
| 20260903001652 | 70 | 50 | 1.0 | 5.0 | 0.00 | 0.00 | 0.00 | 80 | 1023.6 |
| 20260903000151 | 70 | 30 | 0.0 | 3.0 | 0.00 | 0.00 | 0.00 | 79 | 1023.5 |
| 20260902234652 | 70 | 57 | 1.0 | 5.0 | 0.00 | 0.00 | 0.00 | 78 | 1023.5 |
| 20260902233140 | 71 | 40 | 0.0 | 3.0 | 0.00 | 0.00 | 0.00 | 81 | 1023.4 |
| 20260902231654 | 71 | 45 | 0.0 | 4.0 | 0.00 | 0.00 | 0.00 | 80 | 1023.3 |
| 20260902230155 | 71 | 45 | 1.0 | 4.0 | 0.00 | 0.00 | 0.00 | 79 | 1023.1 |
| 20260902224651 | 71 | 45 | 2.0 | 5.0 | 0.00 | 0.00 | 0.00 | 76 | 1022.9 |
| 20260902223140 | 72 | 49 | 0.0 | 4.0 | 0.00 | 0.00 | 0.00 | 75 | 1023.0 |
| 20260902220147 | 74 | 5 | 0.0 | 0.0 | 0.00 | 0.00 | 0.00 | 73 | 1023.1 |
| 20260902214652 | 74 | 5 | 1.0 | 4.0 | 0.00 | 0.00 | 0.00 | 72 | 1023.0 |
| 20260902213140 | 75 | 28 | 0.0 | 4.0 | 0.00 | 0.00 | 0.00 | 73 | 1022.8 |
| 20260902211656 | 76 | 90 | 1.0 | 4.0 | 0.00 | 0.00 | 0.00 | 74 | 1022.7 |
| 20260902210150 | 76 | 90 | 2.0 | 4.0 | 0.00 | 0.00 | 0.00 | 72 | 1022.7 |
| 20260902204652 | 77 | 185 | 2.0 | 5.0 | 0.00 | 0.00 | 0.00 | 72 | 1022.7 |
| 20260902203157 | 77 | 184 | 1.0 | 5.0 | 0.00 | 0.00 | 0.00 | 72 | 1022.7 |
| 20260902200151 | 78 | 155 | 0.0 | 2.0 | 0.00 | 0.00 | 0.00 | 69 | 1022.5 |
| 20260902194653 | 79 | 164 | 0.0 | 2.0 | 0.00 | 0.00 | 0.00 | 68 | 1022.2 |
| 20260902193142 | 79 | 113 | 0.0 | 3.0 | 0.00 | 0.00 | 0.00 | 67 | 1022.0 |
| 20260902191653 | 79 | 127 | 0.0 | 7.0 | 0.00 | 0.00 | 0.00 | 66 | 1021.7 |
| 20260902190153 | 80 | 175 | 2.0 | 8.0 | 0.00 | 0.00 | 0.00 | 66 | 1021.4 |
| 20260902184654 | 80 | 146 | 2.0 | 9.0 | 0.00 | 0.00 | 0.00 | 62 | 1021.2 |
| 20260902183141 | 81 | 130 | 2.0 | 10.0 | 0.00 | 0.00 | 0.00 | 60 | 1020.9 |
| 20260902181653 | 82 | 113 | 4.0 | 15.0 | 0.00 | 0.00 | 0.00 | 58 | 1020.7 |
| 20260902180152 | 82 | 202 | 7.0 | 15.0 | 0.00 | 0.00 | 0.00 | 57 | 1020.7 |
| 20260902174653 | 83 | 132 | 4.0 | 10.0 | 0.00 | 0.00 | 0.00 | 55 | 1020.5 |
| 20260902173145 | 84 | 132 | 5.0 | 13.0 | 0.00 | 0.00 | 0.00 | 52 | 1020.4 |
| 20260902171652 | 86 | 116 | 5.0 | 18.0 | 0.00 | 0.00 | 0.00 | 50 | 1020.2 |
| 20260902170152 | 86 | 177 | 7.0 | 14.0 | 0.00 | 0.00 | 0.00 | 48 | 1020.1 |
| 20260902164650 | 87 | 184 | 6.0 | 17.0 | 0.00 | 0.00 | 0.00 | 47 | 1020.1 |
| 20260902163139 | 88 | 188 | 9.0 | 16.0 | 0.00 | 0.00 | 0.00 | 45 | 1020.1 |
| 20260902161650 | 88 | 144 | 7.0 | 16.0 | 0.00 | 0.00 | 0.00 | 44 | 1020.2 |
| 20260902154652 | 89 | 178 | 7.0 | 15.0 | 0.00 | 0.00 | 0.00 | 43 | 1020.3 |
| 20260902153144 | 89 | 185 | 7.0 | 16.0 | 0.00 | 0.00 | 0.00 | 41 | 1020.3 |
| 20260902151653 | 90 | 128 | 9.0 | 14.0 | 0.00 | 0.00 | 0.00 | 40 | 1020.4 |
| 20260902150157 | 90 | 139 | 8.0 | 17.0 | 0.00 | 0.00 | 0.00 | 39 | 1020.4 |
| 20260902144650 | 90 | 157 | 9.0 | 15.0 | 0.00 | 0.00 | 0.00 | 38 | 1020.5 |
| 20260902143140 | 90 | 157 | 8.0 | 18.0 | 0.00 | 0.00 | 0.00 | 38 | 1020.6 |
| 20260902140153 | 91 | 136 | 8.0 | 17.0 | 0.00 | 0.00 | 0.00 | 36 | 1020.8 |
| 20260902134655 | 91 | 88 | 7.0 | 14.0 | 0.00 | 0.00 | 0.00 | 36 | 1020.8 |
| 20260902133143 | 91 | 173 | 7.0 | 15.0 | 0.00 | 0.00 | 0.00 | 35 | 1020.9 |
| 20260902131653 | 91 | 196 | 5.0 | 15.0 | 0.00 | 0.00 | 0.00 | 35 | 1021.0 |
| 20260902130151 | 91 | 162 | 6.0 | 15.0 | 0.00 | 0.00 | 0.00 | 35 | 1021.1 |
| 20260902124653 | 91 | 175 | 5.0 | 14.0 | 0.00 | 0.00 | 0.00 | 35 | 1021.2 |
| 20260902123145 | 91 | 115 | 6.0 | 12.0 | 0.00 | 0.00 | 0.00 | 35 | 1021.3 |
| 20260902121653 | 91 | 89 | 8.0 | 19.0 | 0.00 | 0.00 | 0.00 | 35 | 1021.3 |
| 20260902120151 | 91 | 115 | 6.0 | 12.0 | 0.00 | 0.00 | 0.00 | 37 | 1021.3 |
| 20260902114651 | 91 | 166 | 7.0 | 14.0 | 0.00 | 0.00 | 0.00 | 38 | 1021.4 |
| 20260902113143 | 91 | 146 | 5.0 | 8.0 | 0.00 | 0.00 | 0.00 | 39 | 1021.4 |
| 20260902111655 | 89 | 171 | 4.0 | 12.0 | 0.00 | 0.00 | 0.00 | 43 | 1021.5 |
| 20260902110158 | 89 | 217 | 2.0 | 8.0 | 0.00 | 0.00 | 0.00 | 46 | 1021.5 |